Location: Unspecified
(34.1750°S, 150.8048°E)
Time: 09:32:43
(UTC+11:00)

ISS - Visible Passes

Search period start: 11 October 2024 00:00
Search period end: 21 October 2024 00:00
Orbit: 412 x 423 km, 51.6° (Epoch: 10 October)

Date Brightness Start Highest point End Pass type
(mag) Time Alt. Az. Time Alt. Az. Time Alt. Az.
11 Oct -2.2 05:02:50 22° NNW 05:02:50 22° NNW 05:04:33 10° NNE visible
11 Oct -3.6 20:01:38 10° NNW 20:04:58 54° NE 20:08:11 11° ESE visible
11 Oct -0.6 21:39:39 10° WSW 21:41:12 16° SW 21:41:12 16° SW visible
12 Oct -1.5 20:50:46 10° W 20:53:41 25° SW 20:56:21 12° SSE visible
13 Oct -2.4 20:02:08 10° WNW 20:05:25 43° SW 20:08:44 10° SE visible
14 Oct -0.6 20:52:58 10° SW 20:54:22 12° SSW 20:55:47 10° S visible
15 Oct -0.8 20:03:26 10° WSW 20:05:49 17° SSW 20:08:13 10° SSE visible
